星链-31914 (STARLINK-31914 )

导读 | 豆包AI

STARLINK-31914是美国SpaceX公司星链(Starlink)星座的一员,于2024年5月28日发射升空,属于低轨互联网通信卫星。星链计划旨在构建全球覆盖的高速低延迟卫星互联网,为偏远等地面网络难以覆盖的区域提供宽带服务。作为大规模星座组网的组成部分,它配备相控阵天线等设备,在轨为全球用户提供互联网接入支持,服役期满后会再入大气层销毁,减少轨道垃圾。

基本信息
目录编号:
59902
目录名称:
STARLINK-31914
国际标识:
2024-100T
轨道中心:
EARTH
卫星名称:
星链-31914
卫星全名:
星链-31914 (STARLINK-31914 )
卫星状态:
在轨 (已飞行656 天)
发射日期:
2024-05-28 UTC
国别 :
美国 (US)
星等 :
--
轨道信息
数据来源 国际轨道数据 AOE轨道数据
星历时间 2026-03-15T02:52:33+0800
1天前
查看轨道信息
2026-03-11T03:00:00+0800
5天前
查看轨道信息
半长轴 6861.189km 6861.146km
偏心率 0.0001075 0.0000022
轨道倾角 43.003° 43.003°
近地点辐角 262.805° 186.747°
升交点赤经 96.844° 119.405°
平近点角 97.268° 138.908°
近地点 482.314km 482.993km
远地点 483.79km 483.025km
周期 94.267分钟 94.266分钟
每日圈数 15.275793 15.275935
详细信息
固有亮度:
5
最大亮度:
1.5
卫星平台:
Starlink v2.0 mini
覆盖范围:
全球
运营商:
太空探索技术公司
运营商所在国:
美国
制造商(研发单位):
太空探索技术公司
制造商所在国:
美国
使用方式:
暂无
卫星简介
星链(Starlink)计划是由太空探索技术公司(SpaceX)提出的一个巨型低轨卫星互联网星座项目,计划在2019年至2024年间在太空搭建由约1.2万颗卫星组成的“星链”网络,其中1584颗将部署在地球上空550千米处的近地轨道,并从2020年开始工作。该卫星仍在工作。
2D轨道图
3D轨道图
轨道高度分析图
轨道倾角分析图
轨道综合分析图
查看轨道综合分析图